FW6557 Weather Reports


Display with metric or nautical units.
time (UTC)temp
F
wind
direction
speed
MPH
gust
MPH
rain 1hr
in
rain 24hr
in
rain mn
in
humidity
%
barometer
mb
20260508153016 53 29 5.0 11.0 0.00 0.75 0.01 84 1001.3
20260508151514 54 38 4.0 10.0 0.00 0.75 0.01 85 1001.3
20260508150034 53 24 3.0 9.0 0.00 0.75 0.01 86 1001.5
20260508144513 54 342 2.0 8.0 0.00 0.75 0.01 85 1001.6
20260508143015 55 5 2.0 6.0 0.00 0.75 0.01 85 1001.7
20260508141518 55 342 2.0 7.0 0.00 0.75 0.01 84 1001.7
20260508140021 55 360 2.0 6.0 0.00 0.75 0.01 82 1001.7
20260508134511 56 5 2.0 4.0 0.00 0.75 0.01 82 1002.1
20260508133011 56 40 2.0 8.0 0.00 0.75 0.01 82 1002.0
20260508131507 55 170 1.0 4.0 0.00 0.75 0.01 78 1001.7
20260508130003 54 117 0.0 2.0 0.00 0.75 0.01 86 1001.7
20260508124558 51 128 1.0 3.0 0.00 0.75 0.01 93 1001.5
20260508123056 49 223 1.0 4.0 0.00 0.75 0.01 97 1001.6
20260508121553 49 82 0.0 3.0 0.00 0.75 0.01 98 1002.0
20260508120050 48 83 1.0 4.0 0.00 0.75 0.01 99 1002.1
20260508114549 47 61 2.0 3.0 0.00 0.75 0.01 99 1002.2
20260508113049 46 98 1.0 3.0 0.00 0.75 0.01 99 1002.3
20260508111559 45 78 0.0 0.0 0.00 0.75 0.01 99 1002.3
20260508110048 44 33 0.0 0.0 0.00 0.75 0.01 99 1002.3
20260508104548 44 33 0.0 0.0 0.00 0.75 0.01 99 1002.7
20260508103051 44 33 0.0 0.0 0.00 0.75 0.01 99 1002.6
20260508101548 44 33 0.0 0.0 0.00 0.75 0.01 99 1002.5
20260508100045 44 33 0.0 0.0 0.00 0.75 0.01 99 1002.4
20260508094644 44 33 0.0 0.0 0.00 0.75 0.01 99 1002.1
20260508093042 44 33 0.0 0.0 0.00 0.75 0.01 99 1002.0
20260508091549 44 33 0.0 0.0 0.00 0.75 0.01 99 1002.0
20260508090041 44 33 0.0 2.0 0.00 0.75 0.01 99 1002.1
20260508084540 44 33 0.0 0.0 0.00 0.75 0.01 99 1002.1
20260508083048 44 33 0.0 0.0 0.00 0.75 0.01 99 1001.6
20260508081541 44 33 0.0 1.0 0.00 0.75 0.01 99 1001.6
20260508080054 44 33 0.0 2.0 0.00 0.75 0.01 99 1001.3
20260508074537 44 33 0.0 0.0 0.00 0.75 0.01 99 1001.4
20260508073040 44 33 0.0 2.0 0.00 0.75 0.01 98 1001.6
20260508071534 44 33 0.0 1.0 0.00 0.75 0.01 98 1001.7
20260508070033 44 33 0.0 1.0 0.00 0.75 0.01 98 1001.6
20260508064542 44 33 0.0 1.0 0.00 0.75 0.01 98 1001.8
20260508063031 45 33 0.0 4.0 0.00 0.75 0.01 98 1001.7
20260508061533 45 39 2.0 5.0 0.00 0.75 0.01 98 1001.8
20260508060029 45 43 1.0 6.0 0.00 0.75 0.01 98 1001.9
20260508054539 45 29 2.0 5.0 0.00 0.75 0.01 98 1001.8
20260508053023 46 38 1.0 4.0 0.00 0.75 0.01 98 1002.0
20260508051520 47 15 0.0 3.0 0.00 0.75 0.01 98 1002.0
20260508050019 47 40 0.0 0.0 0.00 0.75 0.01 98 1001.8
20260508044519 47 40 0.0 0.0 0.00 0.75 0.01 98 1001.8
20260508043017 47 40 0.0 3.0 0.00 0.75 0.01 98 1001.9
20260508041516 47 40 0.0 0.0 0.00 0.75 0.01 98 1002.0
20260508040034 48 40 0.0 0.0 0.01 0.75 0.01 98 1002.0
20260508034513 48 40 0.0 0.0 0.01 0.75 0.01 98 1002.1
20260508033013 48 40 0.0 0.0 0.01 0.75 0.01 98 1002.3
20260508031514 48 40 0.0 0.0 0.01 0.75 0.01 98 1002.2
20260508030009 48 40 0.0 0.0 0.00 0.74 0.74 98 1002.4
20260508024519 48 40 0.0 0.0 0.00 0.74 0.74 98 1002.3
20260508023010 48 40 1.0 2.0 0.00 0.74 0.74 97 1002.3
20260508021506 49 40 0.0 3.0 0.00 0.74 0.74 97 1002.6
20260508020006 49 46 1.0 4.0 0.00 0.74 0.74 97 1002.5
20260508014505 49 34 0.0 5.0 0.00 0.74 0.74 97 1002.7
20260508013003 49 38 1.0 6.0 0.01 0.74 0.74 97 1002.6
20260508011601 49 34 1.0 4.0 0.01 0.74 0.74 97 1002.3
20260508010059 50 27 2.0 7.0 0.02 0.74 0.74 97 1002.2
20260508004559 51 223 0.0 2.0 0.03 0.74 0.74 97 1002.3
20260508003055 51 231 3.0 7.0 0.03 0.73 0.73 97 1002.1
20260508001550 53 265 4.0 10.0 0.04 0.73 0.73 97 1002.2
20260508000055 53 207 2.0 6.0 0.02 0.72 0.72 97 1002.0
20260507234555 53 144 0.0 0.0 0.02 0.71 0.71 97 1001.9
20260507233109 53 158 0.0 3.0 0.01 0.70 0.70 97 1001.8
20260507231548 53 158 1.0 3.0 0.00 0.69 0.69 97 1001.7
20260507230049 53 74 0.0 3.0 0.00 0.69 0.69 97 1001.5
20260507224548 53 97 1.0 2.0 0.00 0.69 0.69 97 1001.8
20260507223056 53 97 0.0 2.0 0.00 0.69 0.69 97 1001.4
20260507221545 53 97 2.0 3.0 0.00 0.69 0.69 96 1001.6
20260507220044 53 98 0.0 2.0 0.00 0.69 0.69 96 1001.7
20260507214546 54 98 0.0 1.0 0.00 0.69 0.69 96 1001.6
20260507213045 54 107 0.0 6.0 0.00 0.69 0.69 96 1001.7
20260507211550 54 77 1.0 5.0 0.00 0.69 0.69 96 1001.6
20260507210103 54 118 1.0 4.0 0.01 0.69 0.69 96 1001.8
20260507204547 53 130 0.0 6.0 0.01 0.69 0.69 96 1001.5
20260507203043 53 130 1.0 7.0 0.04 0.69 0.69 96 1001.8
20260507201539 53 113 1.0 6.0 0.09 0.69 0.69 96 1001.1
20260507200048 54 128 3.0 7.0 0.11 0.69 0.69 96 1001.5
20260507194547 54 117 3.0 7.0 0.13 0.69 0.69 96 1001.8
20260507193032 54 105 3.0 7.0 0.16 0.65 0.65 97 1002.1
20260507191528 55 35 2.0 6.0 0.16 0.61 0.61 96 1003.3
20260507190040 55 349 0.0 2.0 0.20 0.56 0.56 96 1003.5
20260507184533 55 349 0.0 3.0 0.28 0.56 0.56 96 1003.4
20260507183025 55 241 1.0 7.0 0.35 0.50 0.50 96 1004.0
20260507181525 55 200 1.0 8.0 0.42 0.45 0.45 96 1004.0
20260507180024 55 199 7.0 10.0 0.35 0.36 0.36 95 1004.3
20260507174524 56 180 4.0 15.0 0.25 0.26 0.26 95 1004.6
20260507173126 56 198 6.0 15.0 0.15 0.15 0.15 94 1004.1
20260507171518 57 186 4.0 16.0 0.03 0.03 0.03 93 1003.8
20260507170020 57 155 8.0 21.0 0.02 0.02 0.02 92 1003.7
20260507164522 58 146 12.0 19.0 0.01 0.01 0.01 90 1003.9
20260507163017 58 105 14.0 24.0 0.00 0.00 0.00 88 1004.0
20260507161513 60 142 13.0 24.0 0.00 0.00 0.00 85 1004.2
20260507160012 61 207 16.0 29.0 0.00 0.00 0.00 84 1004.4
20260507154512 61 123 11.0 24.0 0.00 0.00 0.00 82 1004.6